Погода в Лаукуве

Погода в Лаукуве : погода сейчас, прогноз погоды и архив. Всё, что Вы хотите узнать о погоде в Лаукуве!

Поиск расширенной информации на нашем сайте:

Другие новости

Новости СМИ2

Главная страница сайта

Новости сайта

03.07.2017

Напоминаем, что на нашем специализированном сайте Метеоцентр.Азия вы можете получить высокодетализированные автоматические прогнозы погоды по пунктам России, СНГ и мира в авиационном формате (включающие направление и скорость ветра, видимость, явления погоды, количество и форму облачности, нижнюю и верхнюю границу облачности).

Рекомендуем: монтаж система вентиляции торгового центра

Погода в Лаукуве - сегодня

Время (UTC), дата Ветер
(°,м/с) 
Видим.   Явления Облачность Т
(°С)
Тd
(°С)
f(%) Тe
(°С)
Pmin
(гПа)
dP
(гПа)
Po
(мм)
O2
(г/м3)
Тmin Tmax R s Состояние
почвы
18 24.05.18 040 (СВ) 5-8{08}  20000 м    1/1 1000 м 
[Cu hum]
+19.9 +9.8 52 +21  1024  -0.2  753  280    +24.1       
21 24.05.18 040 (СВ) 5-7{08}  20000 м    ясно 
+14 +6.8 62 +13  1025.2  0.8  754  287           
00 25.05.18 060 (СВ) 4-6{08}  20000 м    1/0 верхняя 
[Ci fib]
+10.6 +4.8 67 +10  1025.3  -0.1  754  292           
03 25.05.18 070 (В) 4-5{06}  20000 м    ясно 
+9.5 +5.8 78 +9  1025.5  0.1  754  292           
06 25.05.18 060 (СВ) 4-6{06}  20000 м    1/0 верхняя 
[Ci fib]
+17.4 +11.8 70 +22  1025.2  0.3  754  283  +9.2        сухая 
09 25.05.18 060 (СВ) 6-9{09}  20000 м    3/1 1000 м верхняя 
[Cu hum|Ci fib]
+22.2 +12.5 54 +27  1025  754  278           
12 25.05.18 090 (В) 8-12{12}  20000 м    6/5 1000 м верхняя 
[Cu med, cong|Ci sp]
+24.4 +10.4 41 +26  1024.5  -0.3  754  277           
15 25.05.18 080 (В) 7-11{12}  20000 м    4/3 1000 м верхняя 
[Cu med, cong|Ci sp]
+24.2 +11 43 +27  1023.9  -0.6  753  276           
18 25.05.18 130 (ЮВ) 4-6{12}  20000 м    9/4 1000 м средняя, верхняя 
[Cu Sc|Ac trans|Ci sp]
+21.8 +12.1 54 +26  1024.5  0.4  754  278    +24.8       
21 25.05.18 060 (СВ) 4-4{06}  20000 м    9/0 средняя, верхняя 
[Ac und|Cs]
+16.7 +11.8 73 +21  1025.9  755  284           
00 26.05.18 090 (В) 4-6{09}  20000 м    8/0 средняя, верхняя 
[Ac und|Cs]
+17.5 +11 66 +20  1026.1  0.3  755  284           
03 26.05.18 100 (В) 5-7{07}  20000 м    4/3 1000 м кучево-дожд., верхняя 
[Cb calv|Ci sp]
+15.1 +11.2 78 +18  1026.5  0.2  755  285           
06 26.05.18 170 (Ю) 2-4{07}  20000 м    8/0 средняя, верхняя 
[Ac und|Ci sp]
+18 +12.8 72 +24  1027  0.8  755  282  +14.8        сухая 
15 26.05.18 110 (В) 3-5{10}  20000 м    6/4 1000 м кучево-дожд., средняя, верхняя 
[Cb calv|Ac trans|Ci fib]
+23.5 +12.7 51 +28  1024.9  -1  754  277           
18 26.05.18 330 (СЗ) 1-3{08}  20000 м    10/0 средняя, верхняя 
[Ac lent|Cs]
+18.3 +14.3 77 +27  1025.1  -0.1  754  281    +25.6       
21 26.05.18 090 (В) 3-3{04}  20000 м    5/0 средняя, верхняя 
[Ac lent|Ci sp]
+16 +12.7 81 +21  1025.5  0.2  754  284           
00 27.05.18 120 (ЮВ) 3-4{04}  20000 м    6/0 средняя, верхняя 
[Ac lent|Ci sp]
+14.2 +10.7 79 +16  1025.8  0.2  754  287           
03 27.05.18 130 (ЮВ) 3-3{04}  20000 м    6/0 средняя, верхняя 
[Ac trans|Ci sp]
+14 +10.4 79 +16  1025.4  -0.4  754  286           
06 27.05.18 130 (ЮВ) 3-4{04}  20000 м    4/0 верхняя 
[Ci fib]
+19.3 +12.1 63 +24  1025.5  0.5  754  281  +13        сухая 
09 27.05.18 100 (В) 5-7{07}  20000 м    4/3 1000 м средняя, верхняя 
[Cu med, cong|Ac trans|Ci sp]
+24.1 +12 47 +28  1025.5  0.3  755  277           
12 27.05.18 150 (ЮВ) 2-4{07}  20000 м    6/4 1000 м верхняя 
[Cu med, cong|Ci sp]
+25.5 +10.7 39 +27  1025.4  -0.1  755  276           
15 27.05.18 060 (СВ) 2-5{05}  19000 м    6/3 1000 м верхняя 
[Cu med, cong|Ci sp]
+25.8 +11.2 40 +29  1024.3  -1  754  275           
18 27.05.18 110 (В) 1-2{05}  20000 м    ясно 
+22.8 +13.9 57 +30  1024.3  -0.2  754  277    +26.2       
21 27.05.18 050 (СВ) 3-4{05}  18000 м    ясно 
+16.5 +12.1 75 +21  1026.3  1.5  755  284           
06 28.05.18 060 (СВ) 2-4{06}  19000 м    1/0 верхняя 
[Ci fib]
+19 +12.8 67 +25  1027.5  0.6  756  282  +11.9        сухая 
Время (UTC), дата Ветер
(°,м/с) 
Видим.   Явления Облачность Т
(°С)
Тd
(°С)
f(%) Тe
(°С)
Pmin
(гПа)
dP
(гПа)
Po
(мм)
O2
(г/м3)
Тmin Tmax R s Состояние
почвы

Для получения пояснительной информации подведите курсор к названию столбца.

ПОГОДА в Лаукуве - архив

Всё, что Вы хотите узнать о погоде в Лаукуве - удобно и подробно!

Выберите нужную дату (начиная с 1 января 2015* года) и нажмите кнопку "Найти".
Будут отображены архивные сводки погоды по пункту Лаукува, начиная с указанной даты.


Отображать данные в формате CSV (для использования в таблицах Excel)


Внимание! Наш архив погоды предназначен исключительно для личного некоммерческого использования в познавательных целях. Если Вам необходимы официальные справки о состоянии погоды (для производственных, юридических, коммерческих и т.п. целей), обращайтесь в органы Росгидромета.

*Примечание: данная дата относится к архиву по метеостанциям СССР (Россия, СНГ, Балтия).
Архив по метеостанциям Зарубежной Европы и Азии (кроме Китая) хранится 10 дней, по другим регионам земного шара (Китай, Африка, Америка, Австралия, Океания) - 1 день.

Лаукува - район местоположения метеостанции


Название, широта, долгота, высота метеостанции:
Лаукува 55.6°ш. 22.2°д. 166 м над ур. моря [Литва]

Дополнительная информация

В oтличие oт бoльшинства пoгoдных сайтoв мы публикуем пoдрoбную метеoинфoрмацию в детальнoм прoфессиoнальнoм фoрмате.

Характеристики температуры и влажнoсти вoздуха измеряются на высoте 2 м в тени вдали oт зданий и деревьев.
Скoрoсть ветра измеряется на высoте 10 м (на урoвне рoста челoвека скoрoсть ветра ниже в 1.5-2 раза). Если метеoстанция нахoдится в гoрoде или в лесу, тo скoрoсть ветра занижена на 2-4 м/с пo сравнению с oткрытым местoм. Скoрoсть ветра над акватoриями крупных рек и oзёр, а также на вершинах хoлмoв на 2-5 м/с выше, чем в oбычных услoвиях.
Атмoсфернoе давление в разных тoчках местнoсти мoжет значительнo oтличаться oт давления на метеoстанции, в зависимoсти oт услoвий рельефа (при пoдъёме на 10 м давление пoнижается примернo на 1 мм рт.ст.).